User: anonymous   Login
Location: Newark
(51.0089°N, 21.5817°E)
Time: 04:05:40
(UTC+00:00)
Language:

Gurwin Techsat 1B - Orbit

View from above orbital plane
View from above orbital plane
View from above satellite
View from above satellite

Ground track
Ground track

The orbit data is extracted from the following two-line orbital elements,

1 25397U 98043D   20058.82443704 -.00000006  00000-0  16869-4 0  9998
2 25397  98.7179   1.2299 0002005  51.4492 308.6866 14.23679962124030
Epoch (UTC): 27 February 2020 19:47:11
Eccentricity: 0.0002005
inclination: 98.7179°
perigee height: 811 km
apogee height: 814 km
right ascension of ascending node: 1.2299°
argument of perigee: 51.4492°
revolutions per day: 14.23679962
mean anomaly at epoch: 308.6866°
orbit number at epoch: 12403

The dashed part of the orbit path shows where the satellite is in the earth's shadow,  

DLR